Islip, NY

7:53 AM EDT on July 28, 2017 (GMT -0400)
Long Island Mac Arthur

Weather History for KISP - April, 2014

Change the Weather History Date:

Tuesday, April 8, 2014

  Actual Average Record
Temperature  
Mean Temperature 56 °F 47 °F  
Max Temperature 65 °F 55 °F 84 °F (1991)
Min Temperature 47 °F 38 °F 26 °F (2007)
Degree Days  
Heating Degree Days 9 18  
Month to date heating degree days 148 156  
Since 1 July heating degree days 4998 4848  
Cooling Degree Days 0 0  
Month to date cooling degree days 0 0  
Year to date cooling degree days 0 0  
Growing Degree Days 6 (Base 50)    
Moisture  
Dew Point 46 °F    
Average Humidity 67    
Maximum Humidity 93    
Minimum Humidity 40    
Precipitation  
Precipitation 0.56 in 0.15 in 0.75 in (2006)
Month to date precipitation 1.10 1.19  
Year to date precipitation 15.34 12.53  
Snow  
Snow 0.00 in 0.00 in 1.10 in (1996)
Month to date snowfall 0.0 0.3  
Since 1 July snowfall 63.5 24.5  
Snow Depth 0.00 in    
Sea Level Pressure  
Sea Level Pressure 29.50 in    
Wind  
Wind Speed 11 mph (SSW)    
Max Wind Speed 25 mph    
Max Gust Speed 32 mph    
Visibility 4 miles    
Events Fog , Rain , Thunderstorm    
T = Trace of Precipitation, MM = Missing Value Source: NWS Daily Summary

Daily Weather History Graph

Daily Weather History Graph

Search for Another Location

Airport or City:

Trip Planner

Search our weather history database for the weather conditions in past years. The results will help you decide how hot, cold, wet, or windy it might be!

Date:

Astronomy

Apr. 08, 2014 Rise Set
Actual Time 6:24 AM EDT 7:24 PM EDT
Civil Twilight 5:56 AM EDT 7:52 PM EDT
Nautical Twilight 5:23 AM EDT 8:25 PM EDT
Astronomical Twilight 4:48 AM EDT 9:00 PM EDT
Moon 1:13 PM EDT (4/8) 2:37 AM EDT (4/8)
Length of Visible Light 13h 55m
Length of Day
12h 59m
Waxing Gibbous, 62% of the Moon is Illuminated
Apr 8
Waxing Gibbous
Apr 15
Full
Apr 22
Last Quarter
Apr 29
New
May 6
First Quarter

Hourly Weather History & Observations

Time (EDT) Temp. Dew Point Humidity Pressure Visibility Wind Dir Wind Speed Gust Speed Precip Events Conditions
12:56 AM 48.9 °F 46.0 °F 90% 29.68 in 5.0 mi ESE 16.1 mph 25.3 mph 0.00 in Rain Light Rain
1:56 AM 48.0 °F 46.0 °F 93% 29.62 in 2.0 mi SE 9.2 mph - 0.00 in Rain Light Rain
2:04 AM 48.2 °F 46.4 °F 93% 29.62 in 1.2 mi SE 8.1 mph - 0.00 in Rain Light Rain
2:20 AM 48.2 °F 46.4 °F 93% 29.61 in 0.8 mi SE 10.4 mph - 0.01 in Rain Light Rain
2:32 AM 48.2 °F 46.4 °F 93% 29.60 in 1.2 mi SE 9.2 mph - 0.01 in Rain Light Rain
2:54 AM 48.2 °F 46.4 °F 93% 29.59 in 2.5 mi SSE 9.2 mph - 0.03 in Rain Light Rain
2:56 AM 48.0 °F 46.9 °F 96% 29.59 in 3.0 mi SSE 9.2 mph - 0.03 in Rain Light Rain
3:56 AM 48.0 °F 46.9 °F 96% 29.56 in 2.0 mi SSE 4.6 mph - 0.05 in   Overcast
4:05 AM 48.2 °F 48.2 °F 100% 29.55 in 1.5 mi SSE 3.5 mph - N/A   Overcast
4:39 AM 48.2 °F 48.2 °F 100% 29.52 in 0.8 mi South 9.2 mph - 0.01 in   Mist
4:56 AM 48.9 °F 48.0 °F 97% 29.52 in 0.8 mi South 8.1 mph - 0.01 in Thunderstorm Mist
5:13 AM 50.0 °F 48.2 °F 94% 29.52 in 2.0 mi South 9.2 mph - 0.03 in Rain Light Rain
5:25 AM 50.0 °F 48.2 °F 94% 29.52 in 4.0 mi SSW 9.2 mph - 0.06 in Rain Rain
5:56 AM 50.0 °F 48.9 °F 96% 29.49 in 0.5 mi South 6.9 mph - 0.12 in Rain Light Rain
6:39 AM 50.0 °F 48.2 °F 94% 29.49 in 0.5 mi SSW 6.9 mph - 0.04 in Rain , Thunderstorm Heavy Thunderstorms and Rain
6:56 AM 50.0 °F 48.9 °F 96% 29.48 in 0.5 mi Variable 3.5 mph - 0.11 in Rain , Thunderstorm Thunderstorms and Rain
7:40 AM 51.8 °F 50.0 °F 94% 29.47 in 3.0 mi SSW 9.2 mph - 0.24 in Rain Light Rain
7:56 AM 52.0 °F 50.0 °F 93% 29.47 in 0.8 mi SSW 13.8 mph 19.6 mph 0.24 in   Overcast
8:27 AM 51.8 °F 48.2 °F 88% 29.46 in 0.1 mi SSW 13.8 mph 23.0 mph N/A Fog Fog
8:56 AM 51.1 °F 48.9 °F 92% 29.46 in 0.5 mi SW 12.7 mph - 0.00 in Fog Light Drizzle
9:56 AM 50.0 °F 48.0 °F 93% 29.44 in 0.2 mi SSW 12.7 mph 21.9 mph 0.00 in Fog Light Drizzle
10:56 AM 51.1 °F 48.9 °F 92% 29.45 in 0.2 mi SW 9.2 mph - 0.00 in Fog , Rain Light Rain
11:36 AM 51.8 °F 50.0 °F 94% 29.43 in 0.5 mi SSW 8.1 mph - 0.00 in   Overcast
11:56 AM 52.0 °F 51.1 °F 97% 29.43 in 0.2 mi SW 5.8 mph - 0.00 in   Overcast
12:26 PM 53.6 °F 53.6 °F 100% 29.41 in 1.5 mi South 4.6 mph - N/A   Overcast
12:52 PM 53.6 °F 51.8 °F 94% 29.41 in 3.0 mi SW 5.8 mph - N/A   Overcast
12:56 PM 55.0 °F 53.1 °F 93% 29.41 in 3.0 mi SW 6.9 mph - N/A   Overcast
1:18 PM 57.2 °F 53.6 °F 88% 29.41 in 7.0 mi SSW 11.5 mph - N/A   Overcast
1:56 PM 61.0 °F 52.0 °F 72% 29.41 in 10.0 mi SSW 16.1 mph - N/A   Overcast
2:56 PM 57.9 °F 48.9 °F 72% 29.41 in 10.0 mi SSW 16.1 mph 20.7 mph N/A   Overcast
3:56 PM 61.0 °F 45.0 °F 56% 29.41 in 10.0 mi WSW 16.1 mph - N/A   Overcast
4:56 PM 63.0 °F 44.1 °F 50% 29.41 in 10.0 mi WSW 11.5 mph - N/A   Overcast
5:56 PM 62.1 °F 39.0 °F 43% 29.43 in 10.0 mi West 18.4 mph 25.3 mph N/A   Mostly Cloudy
6:56 PM 59.0 °F 35.1 °F 41% 29.47 in 10.0 mi West 17.3 mph 28.8 mph N/A   Mostly Cloudy
7:56 PM 57.0 °F 35.1 °F 44% 29.51 in 10.0 mi West 11.5 mph 20.7 mph N/A   Mostly Cloudy
8:56 PM 55.0 °F 33.1 °F 43% 29.55 in 10.0 mi NW 12.7 mph 19.6 mph N/A   Scattered Clouds
9:56 PM 52.0 °F 32.0 °F 47% 29.57 in 10.0 mi NW 15.0 mph 25.3 mph N/A   Mostly Cloudy
10:56 PM 51.1 °F 30.9 °F 46% 29.59 in 10.0 mi NW 17.3 mph 26.5 mph N/A   Scattered Clouds
11:56 PM 48.9 °F 33.1 °F 54% 29.60 in 10.0 mi NW 10.4 mph - N/A   Scattered Clouds